Location: Ravensburg
(47.7866°N, 9.6124°E)
Time: 10:14:33
(UTC+02:00)

YUBILEINY - Pass Details

Date: 22 March 2026
Orbit: 1477 x 1509 km, 82.5° (Epoch: 17 April)

Event Time Altitude Azimuth Distance (km) Brightness Sun altitude
Rises 19:05:01 0° 268° (W) 4,630 ? -5.5°
Reaches altitude 10° 19:11:23 10° 302° (WNW) 3,646 ? -6.6°
Maximum altitude 19:13:33 11° 317° (NW) 3,566 ? -6.9°
Drops below altitude 10° 19:15:43 10° 332° (NNW) 3,643 ? -7.3°
Sets 19:22:08 0° 6° (N) 4,619 ? -8.3°
